Location: Eaton
(41.3139°N, 82.0207°W)
Time: 02:04:40
(UTC+00:00)

Cosmos 1408 Rocket - Pass Details

Date: 17 June 2021
Orbit: 600 x 632 km, 82.6° (Epoch: 02 August)

Event Time Altitude Azimuth Distance (km) Brightness Sun altitude
Exits shadow 08:39:12 - 175° (S) 2,399 6.2 -11.7°
Reaches altitude 10° 08:40:13 10° 173° (S) 1,994 5.8 -11.6°
Maximum altitude 08:44:34 59° 94° (E) 731 4.1 -11.0°
Drops below altitude 10° 08:48:58 10° 16° (NNE) 2,020 7.2 -10.4°
Sets 08:51:15 0° 12° (NNE) 2,934 8.1 -10.1°
